Regional Weather Roundup
Issued by NWS

Home | Current Version | Previous Version | Graphics & Text | Print | Product List | Glossary On
Versions: 1 2 3 4 5 6 7 8 9 10 11 12 13 14 15 16 17 18 19 20 21 22 23 24 25 26 27 28 29 30 31 32 33 34 35 36 37 38 39 40 41 42 43 44 45 46 47 48 49 50
000
ASUS43 KMPX 190510
RWRMN
WEATHER ROUNDUP FOR MINNESOTA
NATIONAL WEATHER SERVICE TWIN CITIES/CHANHASSEN MN
1200 AM CDT FRI SEP 19 2014


NOTE: "FAIR" INDICATES FEW OR NO CLOUDS BELOW 12,000 FEET WITH NO
SIGNIFICANT WEATHER AND/OR OBSTRUCTIONS TO VISIBILITY. N/A MEANS
CURRENT SKY AND/OR WEATHER CONDITIONS ARE NOT AVAILABLE.

MNZ060>063-068>070-190600-
   Twin Cities Metro

CITY           SKY/WX    TMP DP  RH WIND       PRES   REMARKS
TWIN CITIES    PTCLDY    59  53  80 SE10      29.99S
ST PAUL        CLEAR     60  56  86 SE12      30.00S
CRYSTAL        CLEAR     61  53  75 SE9       29.97S
BLAINE         CLEAR     63  57  82 SE9       29.97F
LAKEVILLE      CLEAR     54  52  94 SE5       30.00S
EDEN PRAIRIE   CLEAR     61  53  75 S8        29.98R
SOUTH ST PAUL  CLEAR     60  55  83 SE6       30.00S
LAKE ELMO      FAIR      61  55  82 S10G17    30.01F
$$
MNZ001>005-007-008-013>017-022>024-027-028-190600-
   Northwest Minnesota

CITY           SKY/WX    TMP DP  RH WIND       PRES   REMARKS
BEMIDJI        MOCLDY    58  54  84 SE10      29.83F
HALLOCK        MOCLDY    68  57  68 S24       29.62F
ROSEAU         CLOUDY    63  55  77 S20       29.70S
WARROAD        CLOUDY    63  57  82 S14G24    29.71S
THIEF RVR FALL CLOUDY    64  55  72 S16       29.73S
CROOKSTON      CLOUDY    68  55  64 S23G30    29.72F
FOSSTON        CLOUDY    63  52  67 S18G26    29.77F
DETROIT LAKES  CLOUDY    63  52  67 S14       29.83F
MOORHEAD       CLOUDY    66  57  72 S14       29.77F
PARK RAPIDS    MOCLDY    59  54  83 S15       29.85F
MAHNOMEN       FAIR      63  53  69 S13G20    29.78F
$$
MNZ006-009>011-018-025>026-190600-
   North Central Minnesota

CITY           SKY/WX    TMP DP  RH WIND       PRES   REMARKS
BAUDETTE       CLOUDY    59  53  80 S15G28    29.76F
FLAG ISLAND    CLOUDY    59  55  88 S18G24    29.71F
INTL FALLS     CLOUDY    53  50  89 S8G23     29.83F
WASKISH        CLOUDY    57  54  88 SE8G18    29.79F
BIG FORK       CLOUDY    55  52  88 S13G20    29.88F
LONGVILLE      MOCLDY    55  54  94 SE10      29.88F
GRAND RAPIDS   CLOUDY    52  48  87 SE16G23   29.92F
CRANE LAKE     CLOUDY    50  48  93 S6        29.92S
ORR            CLOUDY    52  46  82 S12G18    29.88F
COOK           CLOUDY    52  48  87 SE12G21   29.92F
WALKER         FAIR      58  54  88 S10       29.86F
$$
MNZ012-019>021-037-190600-
   Northeast Minnesota

CITY           SKY/WX    TMP DP  RH WIND       PRES   REMARKS
DULUTH         CLOUDY    49  47  93 SE10      29.98F FOG
ELY            CLOUDY    48  46  93 S7        29.95F
HIBBING        CLOUDY    50  47  89 SE7       29.95F
EVELETH        CLOUDY    50  48  93 S8        29.97F
DULUTH HARBOR  CLOUDY    52  48  87 NE13      30.01F
TWO HARBORS    CLOUDY    46  41  81 E6        29.99F
SILVER BAY     MOCLDY    43  43 100 CALM      30.00F
GRAND MARAIS     N/A     48  42  80 NE6       30.02F
G MARAIS ARPRT CLOUDY    41  37  87 CALM      30.01F
$$
MNZ029>031-032-039>041-046>048-054>057-064-190600-
   West Central Minnesota

CITY           SKY/WX    TMP DP  RH WIND       PRES   REMARKS
FERGUS FALLS   CLOUDY    64  48  55 S16       29.83F
WHEATON        MOCLDY    61  54  77 SE15G21   29.82F
MORRIS         PTCLDY    61  52  72 S12       29.86S
ALEXANDRIA     MOCLDY    62  50  64 S16       29.89F
ELBOW LAKE     FAIR      62  51  68 S17       29.84F
WADENA         MOCLDY    57  52  82 S7        29.87S
GLENWOOD       MOCLDY    63  50  63 S14       29.90F
APPLETON       PTCLDY    64  52  63 S10G17    29.86F
BENSON         PTCLDY    61  52  72 S12       29.89S
ORTONVILLE     MOCLDY    61  54  77 SE9       29.84F
MADISON        PTCLDY    63  55  77 SE9       29.86F
WILLMAR        FAIR      61  48  63 SE8       29.93F
$$
MNZ033>034-036-042>043-049>051-058-059-190600-
   Central Minnesota

CITY           SKY/WX    TMP DP  RH WIND       PRES   REMARKS
ST CLOUD       CLEAR     63  52  67 S10       29.94S
SAUK CENTRE    FAIR      57  51  80 SE9       29.90F
PAYNESVILLE    PTCLDY    58  48  68 SE12      29.93F
AITKIN         PTCLDY    59  54  82 SE7       29.92F
PINE RIVER     MOCLDY    57  55  94 S8        29.93F
BRAINERD       MOCLDY    57  54  89 SE8       29.92S
STAPLES        PTCLDY    57  52  82 SE9       29.88F
LONG PRAIRIE   FAIR      57  50  77 SE14      29.90F
LITTLE FALLS   PTCLDY    57  50  77 SE7       29.92F
LITCHFIELD     PTCLDY    63  52  67 S5        29.95F
BUFFALO        PTCLDY    62  52  69 SE7       29.97F
MAPLE LAKE     MOCLDY    62  55  76 S7        29.97S
$$
MNZ037-044-045-052-053-190600-
   East Central Minnesota

CITY           SKY/WX    TMP DP  RH WIND       PRES   REMARKS
PRINCETON      CLEAR     61  55  82 SE7       29.96F
MORA           CLEAR     55  52  88 SE6       29.98S
CAMBRIDGE      CLEAR     61  52  72 SE8       29.95F
RUSH CITY      PTCLDY    57  54  90 S8        29.98F
MOOSE LAKE     CLOUDY    45  43  93 NE5       29.96F FOG
HINCKLEY       FAIR      55  54  94 SE3       29.98S
CLOQUET        CLOUDY    48  46  93 E5        29.98F FOG
MCGREGOR       PTCLDY    52  50  93 SE9       29.95F
$$
MNZ071>073-080-081-089-090-097-098-190600-
   Southwest Minnesota

CITY           SKY/WX    TMP DP  RH WIND       PRES   REMARKS
MONTEVIDEO     CLEAR     61  54  77 S10       29.90S
GRANITE FALLS  PTCLDY    60  53  76 SE10      29.92S
CANBY          MOCLDY    64  55  74 S8        29.88S
MARSHALL       MOCLDY    64  52  63 S21G26    29.89S
REDWOOD FALLS  CLEAR     60  49  66 S14       29.92F
OLIVIA         PTCLDY    61  46  59 S12       29.92S
PIPESTONE      PTCLDY    61  54  77 S15       29.92R
WINDOM         CLEAR     61  52  72 S12G17    29.95F
WORTHINGTON    PTCLDY    59  52  77 S13G26    29.95F
JACKSON        CLEAR     61  50  67 S13       29.97F
TRACY          MOCLDY    62  54  74 S14G20    29.91S
SLAYTON        PTCLDY    59  53  80 S13G20    29.94S
$$
MNZ065>067-074>077-082>085-091>093-190600-
   South Central Minnesota

CITY           SKY/WX    TMP DP  RH WIND       PRES   REMARKS
MANKATO        CLEAR     59  50  72 S8        29.98F
NEW ULM        CLEAR     55  52  88 S8        29.96S
ST JAMES       PTCLDY    57  52  82 SE7       29.98S
FAIRMONT       MOCLDY    55  43  62 S13       29.98F
GLENCOE        CLEAR     62  51  68 S6        29.96S
FARIBAULT      CLEAR     63  52  67 SE5       30.01S
OWATONNA       CLEAR     59  52  77 SE8       30.01S
WASECA         CLEAR     55  46  71 SE6       30.01S
ALBERT LEA     CLEAR     61  52  72 S9G18     30.01F
$$
MNZ078>079-086>088-094>096-190600-
   Southeast Minnesota

CITY           SKY/WX    TMP DP  RH WIND       PRES   REMARKS
ROCHESTER      CLEAR     57  53  86 S10       30.05S
RED WING       CLEAR     61  55  82 S9        30.02R
STANTON        CLEAR     60  53  78 S7        30.00R
DODGE CENTER   PTCLDY    55  54  94 S7        30.03S
WINONA         CLEAR     55  54  94 SE6       30.05F
AUSTIN         CLEAR     57  52  82 S7        30.03S
PRESTON        CLEAR     56  55  98 SE10      30.06S
$$
ABBREVIATIONS USED IN REMARKS
   TC - TEMPERATURES IN CELSIUS
  WCI - WIND CHILL INDEX
   HX - HEAT INDEX
  VSB - VISIBILITY
$$


USA.gov is the U.S. government's official web portal to all federal, state and local government web resources and services.